Location: Forest
(37.3641°N, 79.2902°W)
Time: 20:01:29
(UTC+00:00)

CUTE-I - Visible Passes

Search period start: 05 December 2024 00:00
Search period end: 15 December 2024 00:00
Orbit: 806 x 820 km, 98.7° (Epoch: 05 December)

Date Brightness Start Highest point End Pass type
(mag) Time Alt. Az. Time Alt. Az. Time Alt. Az.
05 Dec ? 11:37:34 10° NNE 11:42:56 86° ESE 11:48:17 10° SSW visible
05 Dec ? 22:56:35 10° S 23:01:51 74° WSW 23:07:09 10° NNW visible
06 Dec ? 11:14:50 10° NNE 11:20:03 52° E 11:25:14 10° S visible
06 Dec ? 22:33:47 10° SSE 22:39:00 68° ENE 22:44:16 10° N visible
07 Dec ? 00:17:04 10° WSW 00:19:23 13° W 00:21:43 10° WNW visible
07 Dec ? 10:52:21 10° NE 10:57:05 31° E 11:01:46 10° SSE visible
07 Dec ? 23:52:16 10° SW 23:56:17 22° W 00:00:21 10° NW visible
08 Dec ? 10:30:19 10° NE 10:34:02 19° E 10:37:45 10° SE visible
08 Dec ? 23:28:27 10° SSW 23:33:16 36° W 23:38:08 10° NNW visible
09 Dec ? 10:09:37 10° ENE 10:10:54 11° E 10:12:13 10° ESE visible
09 Dec ? 11:46:02 10° N 11:51:23 80° WNW 11:56:43 10° SSW visible
09 Dec ? 23:05:07 10° S 23:10:19 61° W 23:15:34 10° NNW visible
10 Dec ? 11:23:12 10° NNE 11:28:31 63° ESE 11:33:48 10° S visible
10 Dec ? 22:42:10 10° SSE 22:47:26 82° ENE 22:52:45 10° N visible
11 Dec ? 00:27:15 10° W 00:27:56 10° W 00:28:37 10° W visible
11 Dec ? 11:00:37 10° NNE 11:05:34 37° E 11:10:30 10° SSE visible
11 Dec ? 22:19:34 10° SE 22:24:38 49° ENE 22:29:44 10° N visible
12 Dec ? 00:01:14 10° SW 00:04:48 18° W 00:08:23 10° NW visible
12 Dec ? 10:38:22 10° NE 10:42:33 23° E 10:46:43 10° SE visible
12 Dec ? 23:37:09 10° SSW 23:41:44 30° W 23:46:23 10° NW visible
13 Dec ? 10:16:52 10° ENE 10:19:27 14° E 10:22:01 10° ESE visible
13 Dec ? 23:13:39 10° S 23:18:45 50° W 23:23:55 10° NNW visible
14 Dec ? 11:31:35 10° NNE 11:36:57 76° ESE 11:42:17 10° S visible
14 Dec ? 22:50:33 10° SSE 22:55:50 84° WSW 23:01:11 10° NNW visible
